Regional Weather Roundup
Issued by NWS Portland, ME

Home | Current Version | Previous Version | Text Only | Print | Product List | Glossary On
Versions: 1 2 3 4 5 6 7 8 9 10 11 12 13 14 15 16 17 18 19 20 21 22 23 24 25 26 27 28 29 30 31 32 33 34 35 36 37 38 39 40 41 42 43 44 45 46 47 48 49 50
000
ASUS41 KGYX 132010
RWRGYX
WEATHER ROUNDUP FOR MAINE AND NEW HAMPSHIRE
NATIONAL WEATHER SERVICE GRAY ME
400 PM EDT SUN JUL 13 2014

MEZ002-005-006-010-012-015-018-020-021-024-026-027-029-132100-
MAINE

CITY           SKY/WX    TMP DP  RH WIND       PRES   REMARKS
PORTLAND       PTSUNNY   73  57  57 S14       29.91F
SANFORD        PTSUNNY   84  64  51 SW12G21   29.90F
BAR HARBOR     SUNNY     72  63  73 S18G25    29.96F
WISCASSET      MOSUNNY   78  59  51 S16G23    29.94F
ROCKLAND       MOSUNNY   72  63  73 SW15G24   29.94F
FRYEBURG       PTSUNNY   82  67  60 S12G22    29.88F
LEWISTONAUBURN PTSUNNY   79  64  61 S9        29.90F
AUGUSTA        PTSUNNY   77  61  57 VRB7G22   29.91F
WATERVILLE     PTSUNNY   77  63  61 S12G17    29.86F
BANGOR         PTSUNNY   76  62  62 S16G24    29.91F
GREENVILLE       N/A     74  65  73 S8        29.87F
MILLINOCKET    CLOUDY    81  67  62 VRB6G16   29.87F
HOULTON        CLOUDY    80  65  59 VRB7G17   29.85F
PRESQUE ISLE   CLOUDY    79  63  57 S13G20    29.84F
FRENCHVILLE    LGT RAIN  72  65  78 S13G24    29.82F
CARIBOU        CLOUDY    77  65  66 S10       29.83F
$$

NHZ002-005-008-009-011-012-014-132100-
NEW HAMPSHIRE

CITY           SKY/WX    TMP DP  RH WIND       PRES   REMARKS
PORTSMOUTH     CLOUDY    86  66  50 SW12G25   29.90F
ROCHESTER      PTSUNNY   83  66  56 VRB7G22   29.91F
NASHUA         CLOUDY    83  67  58 SW7G16    29.94F
MANCHESTER     PTSUNNY   84  66  54 S17G26    29.90F
CONCORD        PTSUNNY   82  67  60 S10G21    29.91F
LACONIA        PTSUNNY   81  66  61 S13G22    29.89F
PLYMOUTH       DRIZZLE   77  66  68 S10       29.89F
BERLIN         CLOUDY    76  66  71 SE7       29.87F
WHITEFIELD     RAIN      75  66  73 W6        29.88F
JAFFREY        CLOUDY    78  66  66 SW12G26   29.97F
LEBANON        LGT RAIN  77  68  73 S16       29.88F
MT WASHINGTON  RAIN      55  55 100 SW31G44     N/A  VSB 1/16
$$

VTZ005-007-008-132100-
VERMONT

CITY           SKY/WX    TMP DP  RH WIND       PRES   REMARKS
ST JOHNSBURY     N/A     75  69  81 MISG      29.84S
MONTPELIER     LGT RAIN  72  67  84 S8        29.89F
BURLINGTON     CLOUDY    77  67  71 S21G29    29.78F
$$

MAZ007-012-024-CTZ003-RIZ002-NYZ038-NYZ072-132100-
SOUTHERN NEW ENGLAND AND NY

CITY           SKY/WX    TMP DP  RH WIND       PRES   REMARKS
BOSTON         PTSUNNY   84  61  45 S20G29    29.95F
WORCESTER      PTSUNNY   77  66  68 S16G25    29.98F
NANTUCKET      SUNNY     73  66  78 S14       30.06F
PROVIDENCE     MOSUNNY   81  61  50 SW20G28   30.01F
HARTFORD       PTSUNNY   83  68  60 S18       29.93F
ALBANY         CLOUDY    78  70  76 S14G23    29.88F
NEW YORK CITY  PTSUNNY   78  69  73 S15G26    29.96F
$$

ANZ081-ANZ082-ANZ150-NHZ014-MEZ023>029-132100-
COASTAL MARINE OBSERVATIONS

STATION/POSITION TIME  TEMP    WIND        PRES    WAVE
                       AIR SEA DIR/SP/G            HT/PER
                 (UTC) (F)     (DEG/KT/KT) (MB)    (FT/S)
MOUNT DESERT ROC 2000   59                 1015.1F
MATINICUS ROCK   1900          190/ 23/ 24 1014.6F
PORTLAND WX BUOY 2000   65 58  180/ 19/ 21 1012.7F   4/ 5
WELLS            2000   68 59  190/ 15/ 19 1012.2F
ISLE OF SHOALS   1900   74     190/ 28/ 29 1013.2F
JEFFREYS LEDGE   2000      66                N/A     4/ 5
CASHES LEDGE BUO 2000   67 64  190/ 19/ 23 1014.4F   4/ 5
$$

.............KEY..............
   WCI - WIND CHILL
   TC  - TEMPERATURE IN CELSIUS
   VSB - VISIBILITY IN MILES
   HX  - HEAT INDEX
   FAIR- INDICATES FEW OR NO CLOUDS BELOW 12,000 FT, WITH NO
         SIGNIFICANT WEATHER AND/OR OBSTRUCTIONS TO VISIBILITY.





USA.gov is the U.S. government's official web portal to all federal, state and local government web resources and services.